Time,TemperatureF,DewpointF,PressureIn,WindDirection,WindDirectionDegrees,WindSpeedMPH,WindSpeedGustMPH,Humidity,HourlyPrecipIn,Conditions,Clouds,dailyrainin,SolarRadiationWatts/m^2,SoftwareType,DateUTC
2013-01-12 00:02:00,37.0,36.0,-100.00,SSW,194,1.0,3.0,96,0.00,,,0.10,0.000000,,2013-01-12 08:02:00,
2013-01-12 00:32:00,35.0,34.0,-100.00,SW,230,2.0,3.0,96,0.00,,,0.10,0.000000,,2013-01-12 08:32:00,
2013-01-12 00:42:00,35.0,34.0,-100.00,SW,230,2.0,3.0,96,0.00,,,0.10,0.000000,,2013-01-12 08:42:00,
2013-01-12 00:52:00,35.0,34.0,-100.00,SW,230,2.0,3.0,96,0.00,,,0.10,0.000000,,2013-01-12 08:52:00,
2013-01-12 01:02:00,35.0,34.0,-100.00,SW,230,2.0,3.0,96,0.00,,,0.10,0.000000,,2013-01-12 09:02:00,
2013-01-12 01:22:00,34.0,33.0,-100.00,WSW,257,1.0,4.0,96,0.00,,,0.10,0.000000,,2013-01-12 09:22:00,
2013-01-12 01:32:00,34.0,33.0,-100.00,WSW,257,1.0,4.0,96,0.00,,,0.10,0.000000,,2013-01-12 09:32:00,
2013-01-12 01:42:00,34.0,33.0,-100.00,WSW,257,1.0,4.0,96,0.00,,,0.10,0.000000,,2013-01-12 09:42:00,
2013-01-12 01:53:00,34.0,33.0,-100.00,WSW,257,1.0,4.0,96,0.00,,,0.10,0.000000,,2013-01-12 09:53:00,
2013-01-12 02:02:00,34.0,33.0,-100.00,WSW,257,1.0,4.0,96,0.00,,,0.10,0.000000,,2013-01-12 10:02:00,
2013-01-12 02:32:00,35.0,34.0,-100.00,SSW,213,2.0,4.0,96,0.00,,,0.10,0.000000,,2013-01-12 10:32:00,
2013-01-12 02:43:00,35.0,34.0,-100.00,SSW,213,2.0,4.0,96,0.00,,,0.10,0.000000,,2013-01-12 10:43:00,
2013-01-12 02:52:00,35.0,34.0,-100.00,SSW,213,2.0,4.0,96,0.00,,,0.10,0.000000,,2013-01-12 10:52:00,
2013-01-12 03:02:00,35.0,34.0,-100.00,SSW,213,2.0,4.0,96,0.00,,,0.10,0.000000,,2013-01-12 11:02:00,
2013-01-12 03:22:00,35.0,34.0,-100.00,SSW,207,2.0,5.0,96,0.00,,,0.10,0.000000,,2013-01-12 11:22:00,
2013-01-12 03:33:00,35.0,34.0,-100.00,SSW,207,2.0,5.0,96,0.00,,,0.10,0.000000,,2013-01-12 11:33:00,
2013-01-12 03:42:00,35.0,34.0,-100.00,SSW,207,2.0,5.0,96,0.00,,,0.10,0.000000,,2013-01-12 11:42:00,
2013-01-12 03:53:00,35.0,34.0,-100.00,SSW,207,2.0,5.0,96,0.00,,,0.10,0.000000,,2013-01-12 11:53:00,
2013-01-12 04:02:00,35.0,34.0,-100.00,SSW,207,2.0,5.0,96,0.00,,,0.10,0.000000,,2013-01-12 12:02:00,
2013-01-12 04:33:00,34.0,33.0,-100.00,SSW,210,2.0,5.0,96,0.00,,,0.10,0.000000,,2013-01-12 12:33:00,
2013-01-12 04:43:00,34.0,33.0,-100.00,SSW,210,2.0,5.0,96,0.00,,,0.10,0.000000,,2013-01-12 12:43:00,
2013-01-12 04:52:00,34.0,33.0,-100.00,SSW,210,2.0,5.0,96,0.00,,,0.10,0.000000,,2013-01-12 12:52:00,
2013-01-12 05:02:00,34.0,33.0,-100.00,SSW,210,2.0,5.0,96,0.00,,,0.10,0.000000,,2013-01-12 13:02:00,
2013-01-12 05:33:00,33.0,32.0,-100.00,SSW,211,2.0,6.0,96,0.00,,,0.10,0.000000,,2013-01-12 13:33:00,
2013-01-12 05:43:00,33.0,32.0,-100.00,SSW,211,2.0,6.0,96,0.00,,,0.10,0.000000,,2013-01-12 13:43:00,
2013-01-12 05:53:00,33.0,32.0,-100.00,SSW,211,2.0,6.0,96,0.00,,,0.10,0.000000,,2013-01-12 13:53:00,
2013-01-12 06:02:00,33.0,32.0,-100.00,SSW,211,2.0,6.0,96,0.00,,,0.10,0.000000,,2013-01-12 14:02:00,
2013-01-12 06:33:00,32.0,31.0,-100.00,SW,214,3.0,5.0,96,0.00,,,0.10,0.000000,,2013-01-12 14:33:00,
2013-01-12 06:43:00,32.0,31.0,-100.00,SW,214,3.0,5.0,96,0.00,,,0.10,0.000000,,2013-01-12 14:43:00,
2013-01-12 06:53:00,32.0,31.0,-100.00,SW,214,3.0,5.0,96,0.00,,,0.10,0.000000,,2013-01-12 14:53:00,
2013-01-12 07:03:00,32.0,31.0,-100.00,SW,214,3.0,5.0,96,0.00,,,0.10,0.000000,,2013-01-12 15:03:00,
2013-01-12 07:23:00,32.0,31.0,-100.00,SW,217,3.0,5.0,96,0.00,,,0.10,0.000000,,2013-01-12 15:23:00,
2013-01-12 07:33:00,32.0,31.0,-100.00,SW,217,3.0,5.0,96,0.00,,,0.10,0.000000,,2013-01-12 15:33:00,
2013-01-12 07:43:00,32.0,31.0,-100.00,SW,217,3.0,5.0,96,0.00,,,0.10,0.000000,,2013-01-12 15:43:00,
2013-01-12 07:53:00,32.0,31.0,-100.00,SW,217,3.0,5.0,96,0.00,,,0.10,0.000000,,2013-01-12 15:53:00,
2013-01-12 08:02:00,32.0,31.0,-100.00,SW,217,3.0,5.0,96,0.00,,,0.10,0.000000,,2013-01-12 16:02:00,
2013-01-12 08:33:00,33.0,32.0,-100.00,SW,218,3.0,6.0,95,0.00,,,0.10,9.000000,,2013-01-12 16:33:00,
2013-01-12 08:43:00,33.0,32.0,-100.00,SW,218,3.0,6.0,95,0.00,,,0.10,9.000000,,2013-01-12 16:43:00,
2013-01-12 08:53:00,33.0,32.0,-100.00,SW,218,3.0,6.0,95,0.00,,,0.10,9.000000,,2013-01-12 16:53:00,
2013-01-12 09:02:00,33.0,32.0,-100.00,SW,218,3.0,6.0,95,0.00,,,0.10,9.000000,,2013-01-12 17:02:00,
2013-01-12 09:33:00,34.0,32.0,-100.00,SSW,200,2.0,5.0,93,0.00,,,-99.99,27.000000,,2013-01-12 17:33:00,
2013-01-12 09:43:00,34.0,32.0,-100.00,SSW,200,2.0,5.0,93,0.00,,,-99.99,27.000000,,2013-01-12 17:43:00,
2013-01-12 09:53:00,34.0,32.0,-100.00,SSW,200,2.0,5.0,93,0.00,,,-99.99,27.000000,,2013-01-12 17:53:00,
2013-01-12 10:02:00,34.0,32.0,-100.00,SSW,200,2.0,5.0,93,0.00,,,-99.99,27.000000,,2013-01-12 18:02:00,
2013-01-12 10:33:00,39.0,36.0,-100.00,South,178,1.0,3.0,89,0.00,,,0.09,216.000000,,2013-01-12 18:33:00,
2013-01-12 10:43:00,39.0,36.0,-100.00,South,178,1.0,3.0,89,0.00,,,0.09,216.000000,,2013-01-12 18:43:00,
2013-01-12 10:53:00,39.0,36.0,-100.00,South,178,1.0,3.0,89,0.00,,,0.09,216.000000,,2013-01-12 18:53:00,
2013-01-12 11:03:00,39.0,36.0,-100.00,South,178,1.0,3.0,89,0.00,,,0.09,216.000000,,2013-01-12 19:03:00,
2013-01-12 11:33:00,45.0,39.0,-100.00,SSW,200,2.0,2.0,80,0.00,,,0.09,387.000000,,2013-01-12 19:33:00,
2013-01-12 11:43:00,45.0,39.0,-100.00,SSW,200,2.0,2.0,80,0.00,,,0.09,387.000000,,2013-01-12 19:43:00,
2013-01-12 11:53:00,45.0,39.0,-100.00,SSW,200,2.0,2.0,80,0.00,,,0.09,387.000000,,2013-01-12 19:53:00,
2013-01-12 12:02:00,45.0,39.0,-100.00,SSW,200,2.0,2.0,80,0.00,,,0.09,387.000000,,2013-01-12 20:02:00,
2013-01-12 12:33:00,50.0,33.0,-100.00,East,97,2.0,6.0,52,0.00,,,0.09,546.000000,,2013-01-12 20:33:00,
2013-01-12 12:43:00,50.0,33.0,-100.00,East,97,2.0,6.0,52,0.00,,,0.09,546.000000,,2013-01-12 20:43:00,
2013-01-12 12:53:00,50.0,33.0,-100.00,East,97,2.0,6.0,52,0.00,,,0.09,546.000000,,2013-01-12 20:53:00,
2013-01-12 13:02:00,50.0,33.0,-100.00,East,97,2.0,6.0,52,0.00,,,0.09,546.000000,,2013-01-12 21:02:00,
2013-01-12 13:33:00,50.0,28.0,-100.00,ESE,115,5.0,11.0,42,0.00,,,0.09,585.000000,,2013-01-12 21:33:00,
2013-01-12 13:43:00,50.0,28.0,-100.00,ESE,115,5.0,11.0,42,0.00,,,0.09,585.000000,,2013-01-12 21:43:00,
2013-01-12 13:53:00,50.0,28.0,-100.00,ESE,115,5.0,11.0,42,0.00,,,0.09,585.000000,,2013-01-12 21:53:00,
2013-01-12 14:02:00,50.0,28.0,-100.00,ESE,115,5.0,11.0,42,0.00,,,0.09,585.000000,,2013-01-12 22:02:00,
2013-01-12 14:33:00,49.0,25.0,-100.00,ESE,102,4.0,9.0,39,0.00,,,0.09,426.000000,,2013-01-12 22:33:00,
2013-01-12 14:43:00,49.0,25.0,-100.00,ESE,102,4.0,9.0,39,0.00,,,0.09,426.000000,,2013-01-12 22:43:00,
2013-01-12 14:53:00,49.0,25.0,-100.00,ESE,102,4.0,9.0,39,0.00,,,0.09,426.000000,,2013-01-12 22:53:00,
2013-01-12 15:02:00,49.0,25.0,-100.00,ESE,102,4.0,9.0,39,0.00,,,0.09,426.000000,,2013-01-12 23:02:00,
2013-01-12 15:33:00,50.0,30.0,-100.00,SE,141,3.0,9.0,46,0.00,,,0.09,364.000000,,2013-01-12 23:33:00,
2013-01-12 15:43:00,50.0,30.0,-100.00,SE,141,3.0,9.0,46,0.00,,,0.09,364.000000,,2013-01-12 23:43:00,
2013-01-12 15:53:00,50.0,30.0,-100.00,SE,141,3.0,9.0,46,0.00,,,0.09,364.000000,,2013-01-12 23:53:00,
2013-01-12 16:02:00,50.0,30.0,-100.00,SE,141,3.0,9.0,46,0.00,,,0.09,364.000000,,2013-01-13 00:02:00,
2013-01-12 16:33:00,45.0,31.0,-100.00,SSE,152,3.0,9.0,57,0.00,,,0.09,212.000000,,2013-01-13 00:33:00,
2013-01-12 16:43:00,45.0,31.0,-100.00,SSE,152,3.0,9.0,57,0.00,,,0.09,212.000000,,2013-01-13 00:43:00,
2013-01-12 16:53:00,45.0,31.0,-100.00,SSE,152,3.0,9.0,57,0.00,,,0.09,212.000000,,2013-01-13 00:53:00,
2013-01-12 17:02:00,45.0,31.0,-100.00,SSE,152,3.0,9.0,57,0.00,,,0.09,212.000000,,2013-01-13 01:02:00,
2013-01-12 17:33:00,40.0,31.0,-100.00,WSW,252,2.0,8.0,71,0.00,,,0.09,16.000000,,2013-01-13 01:33:00,
2013-01-12 18:02:00,40.0,31.0,-100.00,WSW,252,2.0,8.0,71,0.00,,,0.09,16.000000,,2013-01-13 02:02:00,
2013-01-12 18:33:00,36.0,31.0,-100.00,SW,232,2.0,4.0,82,0.00,,,0.09,1.000000,,2013-01-13 02:33:00,
2013-01-12 18:43:00,36.0,31.0,-100.00,SW,232,2.0,4.0,82,0.00,,,0.09,1.000000,,2013-01-13 02:43:00,
2013-01-12 18:53:00,36.0,31.0,-100.00,SW,232,2.0,4.0,82,0.00,,,0.09,1.000000,,2013-01-13 02:53:00,
2013-01-12 19:02:00,36.0,31.0,-100.00,SW,232,2.0,4.0,82,0.00,,,0.09,1.000000,,2013-01-13 03:02:00,
2013-01-12 19:22:00,33.0,30.0,-100.00,SW,225,2.0,5.0,87,0.00,,,0.09,0.000000,,2013-01-13 03:22:00,
2013-01-12 19:33:00,33.0,30.0,-100.00,SW,225,2.0,5.0,87,0.00,,,0.09,0.000000,,2013-01-13 03:33:00,
2013-01-12 19:43:00,33.0,30.0,-100.00,SW,225,2.0,5.0,87,0.00,,,0.09,0.000000,,2013-01-13 03:43:00,
2013-01-12 19:53:00,33.0,30.0,-100.00,SW,225,2.0,5.0,87,0.00,,,0.09,0.000000,,2013-01-13 03:53:00,
2013-01-12 20:02:00,33.0,30.0,-100.00,SW,225,2.0,5.0,87,0.00,,,0.09,0.000000,,2013-01-13 04:02:00,
2013-01-12 20:33:00,33.0,30.0,-100.00,SW,231,2.0,4.0,89,0.00,,,0.07,0.000000,,2013-01-13 04:33:00,
2013-01-12 20:43:00,33.0,30.0,-100.00,SW,231,2.0,4.0,89,0.00,,,0.07,0.000000,,2013-01-13 04:43:00,
2013-01-12 20:52:00,33.0,30.0,-100.00,SW,231,2.0,4.0,89,0.00,,,0.07,0.000000,,2013-01-13 04:52:00,
2013-01-12 21:03:00,33.0,30.0,-100.00,SW,231,2.0,4.0,89,0.00,,,0.07,0.000000,,2013-01-13 05:03:00,
2013-01-12 21:32:00,35.0,31.0,-100.00,SSW,208,2.0,4.0,86,0.00,,,0.01,0.000000,,2013-01-13 05:32:00,
2013-01-12 21:42:00,35.0,31.0,-100.00,SSW,208,2.0,4.0,86,0.00,,,0.01,0.000000,,2013-01-13 05:42:00,
2013-01-12 21:53:00,35.0,31.0,-100.00,SSW,208,2.0,4.0,86,0.00,,,0.01,0.000000,,2013-01-13 05:53:00,
2013-01-12 22:02:00,35.0,31.0,-100.00,SSW,208,2.0,4.0,86,0.00,,,0.01,0.000000,,2013-01-13 06:02:00,
2013-01-12 22:32:00,34.0,31.0,-100.00,SW,227,2.0,4.0,88,0.00,,,0.00,0.000000,,2013-01-13 06:32:00,
2013-01-12 22:42:00,34.0,31.0,-100.00,SW,227,2.0,4.0,88,0.00,,,0.00,0.000000,,2013-01-13 06:42:00,
2013-01-12 22:52:00,34.0,31.0,-100.00,SW,227,2.0,4.0,88,0.00,,,0.00,0.000000,,2013-01-13 06:52:00,
2013-01-12 23:02:00,34.0,31.0,-100.00,SW,227,2.0,4.0,88,0.00,,,0.00,0.000000,,2013-01-13 07:02:00,
2013-01-12 23:32:00,31.0,29.0,-100.00,SW,233,2.0,5.0,91,0.00,,,0.00,0.000000,,2013-01-13 07:32:00,